Time,TemperatureF,DewpointF,PressureIn,WindDirection,WindDirectionDegrees,WindSpeedMPH,WindSpeedGustMPH,Humidity,HourlyPrecipIn,Conditions,Clouds,dailyrainin,SoftwareType,DateUTC
2013-03-14 00:02:00,17.0,10.0,30.25,WSW,250,0.0,-999.0,75,-99.99,,,0.00,weatherlink.com 1.10,2013-03-14 05:02:00,
2013-03-14 00:17:00,16.5,10.0,30.25,WSW,250,0.0,-999.0,74,-99.99,,,0.00,weatherlink.com 1.10,2013-03-14 05:17:00,
2013-03-14 00:32:00,16.1,9.0,30.25,WSW,250,0.0,-999.0,74,-99.99,,,0.00,weatherlink.com 1.10,2013-03-14 05:32:00,
2013-03-14 00:47:00,15.7,9.0,30.25,WSW,250,0.0,-999.0,74,-99.99,,,0.00,weatherlink.com 1.10,2013-03-14 05:47:00,
2013-03-14 01:02:00,15.4,9.0,30.25,WSW,250,0.0,-999.0,74,-99.99,,,0.00,weatherlink.com 1.10,2013-03-14 06:02:00,
2013-03-14 01:17:00,15.1,9.0,30.25,WSW,250,0.0,-999.0,75,-99.99,,,0.00,weatherlink.com 1.10,2013-03-14 06:17:00,
2013-03-14 01:32:00,14.8,8.0,30.23,WSW,250,0.0,-999.0,75,-99.99,,,0.00,weatherlink.com 1.10,2013-03-14 06:32:00,
2013-03-14 01:47:00,14.8,9.0,30.23,WSW,250,0.0,-999.0,77,-99.99,,,0.00,weatherlink.com 1.10,2013-03-14 06:47:00,
2013-03-14 02:02:00,14.6,9.0,30.23,WSW,250,0.0,-999.0,78,-99.99,,,0.00,weatherlink.com 1.10,2013-03-14 07:02:00,
2013-03-14 02:17:00,14.8,9.0,30.23,WSW,250,0.0,-999.0,79,-99.99,,,0.00,weatherlink.com 1.10,2013-03-14 07:17:00,
2013-03-14 02:32:00,14.9,10.0,30.23,WSW,250,0.0,-999.0,81,-99.99,,,0.00,weatherlink.com 1.10,2013-03-14 07:32:00,
2013-03-14 02:47:00,14.9,10.0,30.22,WSW,250,0.0,-999.0,80,-99.99,,,0.00,weatherlink.com 1.10,2013-03-14 07:47:00,
2013-03-14 03:02:00,14.8,10.0,30.22,WSW,250,0.0,-999.0,80,-99.99,,,0.00,weatherlink.com 1.10,2013-03-14 08:02:00,
2013-03-14 03:17:00,14.6,10.0,30.22,WSW,250,0.0,-999.0,80,-99.99,,,0.00,weatherlink.com 1.10,2013-03-14 08:17:00,
2013-03-14 03:32:00,14.6,10.0,30.22,WSW,250,0.0,-999.0,80,-99.99,,,0.00,weatherlink.com 1.10,2013-03-14 08:32:00,
2013-03-14 03:47:00,14.6,10.0,30.22,WSW,250,0.0,-999.0,81,-99.99,,,0.00,weatherlink.com 1.10,2013-03-14 08:47:00,
2013-03-14 04:02:00,14.8,10.0,30.20,WSW,250,0.0,-999.0,82,-99.99,,,0.00,weatherlink.com 1.10,2013-03-14 09:02:00,
2013-03-14 04:17:00,15.1,11.0,30.20,WSW,250,0.0,-999.0,83,-99.99,,,0.00,weatherlink.com 1.10,2013-03-14 09:17:00,
2013-03-14 04:32:00,15.4,11.0,30.19,WSW,250,0.0,-999.0,83,-99.99,,,0.00,weatherlink.com 1.10,2013-03-14 09:32:00,
2013-03-14 04:47:00,15.6,11.0,30.19,WSW,250,0.0,-999.0,83,-99.99,,,0.00,weatherlink.com 1.10,2013-03-14 09:47:00,
2013-03-14 05:02:00,15.9,12.0,30.19,WSW,250,0.0,-999.0,84,-99.99,,,0.00,weatherlink.com 1.10,2013-03-14 10:02:00,
2013-03-14 05:18:00,16.2,12.0,30.19,WSW,250,0.0,-999.0,84,-99.99,,,0.00,weatherlink.com 1.10,2013-03-14 10:18:00,
2013-03-14 05:33:00,16.5,13.0,30.19,WSW,250,0.0,-999.0,84,-99.99,,,0.00,weatherlink.com 1.10,2013-03-14 10:33:00,
2013-03-14 05:48:00,17.2,13.0,30.19,WSW,250,0.0,-999.0,84,-99.99,,,0.00,weatherlink.com 1.10,2013-03-14 10:48:00,
2013-03-14 06:03:00,17.7,14.0,30.19,WSW,250,0.0,-999.0,84,-99.99,,,0.00,weatherlink.com 1.10,2013-03-14 11:03:00,
2013-03-14 06:18:00,18.3,14.0,30.18,South,169,0.0,-999.0,84,-99.99,,,0.00,weatherlink.com 1.10,2013-03-14 11:18:00,
2013-03-14 06:33:00,18.9,15.0,30.18,SW,236,0.0,-999.0,84,-99.99,,,0.00,weatherlink.com 1.10,2013-03-14 11:33:00,
2013-03-14 06:48:00,19.4,15.0,30.17,SW,236,0.0,-999.0,84,-99.99,,,0.00,weatherlink.com 1.10,2013-03-14 11:48:00,
2013-03-14 07:03:00,19.5,15.0,30.17,SW,236,1.0,-999.0,83,-99.99,,,0.00,weatherlink.com 1.10,2013-03-14 12:03:00,
2013-03-14 07:18:00,19.7,15.0,30.16,SE,140,1.0,-999.0,83,-99.99,,,0.00,weatherlink.com 1.10,2013-03-14 12:18:00,
2013-03-14 07:33:00,19.9,16.0,30.16,SE,140,1.0,-999.0,84,-99.99,,,0.00,weatherlink.com 1.10,2013-03-14 12:33:00,
2013-03-14 07:48:00,20.2,16.0,30.16,SSE,150,1.0,-999.0,85,-99.99,,,0.00,weatherlink.com 1.10,2013-03-14 12:48:00,
2013-03-14 08:03:00,20.3,17.0,30.16,South,176,0.0,-999.0,85,-99.99,,,0.00,weatherlink.com 1.10,2013-03-14 13:03:00,
2013-03-14 08:18:00,20.6,17.0,30.16,SE,132,0.0,-999.0,86,-99.99,,,0.00,weatherlink.com 1.10,2013-03-14 13:18:00,
2013-03-14 08:33:00,20.8,17.0,30.16,SE,132,1.0,-999.0,86,-99.99,,,0.00,weatherlink.com 1.10,2013-03-14 13:33:00,
2013-03-14 08:48:00,21.1,18.0,30.16,SSW,193,0.0,-999.0,86,-99.99,,,0.00,weatherlink.com 1.10,2013-03-14 13:48:00,
2013-03-14 09:03:00,21.6,18.0,30.17,SSW,193,1.0,-999.0,86,-99.99,,,0.00,weatherlink.com 1.10,2013-03-14 14:03:00,
2013-03-14 09:19:00,22.1,19.0,30.18,SSE,166,0.0,-999.0,86,-99.99,,,0.00,weatherlink.com 1.10,2013-03-14 14:19:00,
2013-03-14 09:34:00,22.5,19.0,30.17,East,89,0.0,-999.0,86,-99.99,,,0.00,weatherlink.com 1.10,2013-03-14 14:34:00,
2013-03-14 09:49:00,23.0,19.0,30.17,East,89,2.0,-999.0,86,-99.99,,,0.00,weatherlink.com 1.10,2013-03-14 14:49:00,
2013-03-14 10:04:00,23.6,20.0,30.16,East,89,2.0,-999.0,86,-99.99,,,0.00,weatherlink.com 1.10,2013-03-14 15:04:00,
2013-03-14 10:34:00,24.5,21.0,30.16,ESE,107,2.0,-999.0,85,-99.99,,,0.00,weatherlink.com 1.10,2013-03-14 15:34:00,
2013-03-14 10:49:00,25.1,21.0,30.16,South,171,0.0,-999.0,85,-99.99,,,0.00,weatherlink.com 1.10,2013-03-14 15:49:00,
2013-03-14 11:04:00,25.7,22.0,30.14,ESE,120,0.0,-999.0,84,-99.99,,,0.00,weatherlink.com 1.10,2013-03-14 16:04:00,
2013-03-14 11:19:00,26.1,22.0,30.14,East,84,0.0,-999.0,83,-99.99,,,0.00,weatherlink.com 1.10,2013-03-14 16:19:00,
2013-03-14 11:34:00,26.7,22.0,30.13,SSE,165,0.0,-999.0,82,-99.99,,,0.00,weatherlink.com 1.10,2013-03-14 16:34:00,
2013-03-14 11:49:00,27.6,23.0,30.13,South,185,3.0,-999.0,81,-99.99,,,0.00,weatherlink.com 1.10,2013-03-14 16:49:00,
2013-03-14 12:04:00,28.2,23.0,30.12,South,174,1.0,-999.0,80,-99.99,,,0.00,weatherlink.com 1.10,2013-03-14 17:04:00,
2013-03-14 12:20:00,29.0,24.0,30.12,South,186,0.0,-999.0,80,-99.99,,,0.00,weatherlink.com 1.10,2013-03-14 17:20:00,
2013-03-14 12:35:00,30.0,24.0,30.11,ESE,117,3.0,-999.0,79,-99.99,,,0.00,weatherlink.com 1.10,2013-03-14 17:35:00,
2013-03-14 12:50:00,31.6,25.0,30.11,SW,232,1.0,-999.0,76,-99.99,,,0.00,weatherlink.com 1.10,2013-03-14 17:50:00,
2013-03-14 13:05:00,32.9,25.0,30.10,SW,215,2.0,-999.0,72,-99.99,,,0.00,weatherlink.com 1.10,2013-03-14 18:05:00,
2013-03-14 13:19:00,34.0,25.0,30.09,SSW,199,0.0,-999.0,70,-99.99,,,0.01,weatherlink.com 1.10,2013-03-14 18:19:00,
2013-03-14 13:34:00,35.0,26.0,30.08,SW,234,3.0,-999.0,69,-99.99,,,0.02,weatherlink.com 1.10,2013-03-14 18:34:00,
2013-03-14 13:49:00,35.6,25.0,30.10,SSW,201,0.0,-999.0,66,-99.99,,,0.03,weatherlink.com 1.10,2013-03-14 18:49:00,
2013-03-14 14:04:00,35.8,25.0,30.10,South,181,2.0,-999.0,66,-99.99,,,0.04,weatherlink.com 1.10,2013-03-14 19:04:00,
2013-03-14 14:20:00,36.5,26.0,30.10,SSE,162,0.0,-999.0,65,-99.99,,,0.05,weatherlink.com 1.10,2013-03-14 19:20:00,
2013-03-14 14:35:00,36.9,26.0,30.10,SW,228,0.0,-999.0,65,-99.99,,,0.06,weatherlink.com 1.10,2013-03-14 19:35:00,
2013-03-14 14:50:00,37.3,26.0,30.10,South,183,1.0,-999.0,65,-99.99,,,0.06,weatherlink.com 1.10,2013-03-14 19:50:00,
2013-03-14 15:05:00,37.9,27.0,30.09,South,191,0.0,-999.0,65,-99.99,,,0.07,weatherlink.com 1.10,2013-03-14 20:05:00,
2013-03-14 15:20:00,38.2,28.0,30.07,SSE,148,1.0,-999.0,66,-99.99,,,0.07,weatherlink.com 1.10,2013-03-14 20:20:00,
2013-03-14 15:35:00,40.8,29.0,30.07,SSW,197,4.0,-999.0,62,-99.99,,,0.08,weatherlink.com 1.10,2013-03-14 20:35:00,
2013-03-14 15:50:00,41.5,28.0,30.06,South,170,3.0,-999.0,59,-99.99,,,0.08,weatherlink.com 1.10,2013-03-14 20:50:00,
2013-03-14 16:05:00,41.6,28.0,30.06,SSE,153,1.0,-999.0,58,-99.99,,,0.09,weatherlink.com 1.10,2013-03-14 21:05:00,
2013-03-14 16:20:00,41.1,27.0,30.06,South,181,2.0,-999.0,58,-99.99,,,0.09,weatherlink.com 1.10,2013-03-14 21:20:00,
2013-03-14 16:36:00,40.1,27.0,30.08,SSE,168,4.0,-999.0,60,-99.99,,,0.09,weatherlink.com 1.10,2013-03-14 21:36:00,
2013-03-14 16:51:00,38.9,27.0,30.07,SW,231,1.0,-999.0,62,-99.99,,,0.09,weatherlink.com 1.10,2013-03-14 21:51:00,
2013-03-14 17:06:00,38.5,27.0,30.07,SSW,196,2.0,-999.0,63,-99.99,,,0.09,weatherlink.com 1.10,2013-03-14 22:06:00,
2013-03-14 17:21:00,38.2,26.0,30.06,South,169,3.0,-999.0,63,-99.99,,,0.09,weatherlink.com 1.10,2013-03-14 22:21:00,
2013-03-14 17:36:00,37.6,27.0,30.07,South,181,3.0,-999.0,65,-99.99,,,0.09,weatherlink.com 1.10,2013-03-14 22:36:00,
2013-03-14 17:51:00,36.9,26.0,30.07,SSW,213,2.0,-999.0,66,-99.99,,,0.09,weatherlink.com 1.10,2013-03-14 22:51:00,
2013-03-14 18:07:00,36.5,26.0,30.06,SW,234,4.0,-999.0,66,-99.99,,,0.09,weatherlink.com 1.10,2013-03-14 23:07:00,
2013-03-14 18:20:00,36.3,26.0,30.05,SSW,209,1.0,-999.0,67,-99.99,,,0.09,weatherlink.com 1.10,2013-03-14 23:20:00,
2013-03-14 18:35:00,36.0,26.0,30.03,SSE,160,0.0,-999.0,67,-99.99,,,0.09,weatherlink.com 1.10,2013-03-14 23:35:00,
2013-03-14 18:50:00,35.5,26.0,30.03,SSW,205,2.0,-999.0,68,-99.99,,,0.09,weatherlink.com 1.10,2013-03-14 23:50:00,
2013-03-14 19:05:00,35.0,26.0,30.03,WSW,244,0.0,-999.0,69,-99.99,,,0.09,weatherlink.com 1.10,2013-03-15 00:05:00,
2013-03-14 19:20:00,34.3,25.0,30.03,WSW,244,0.0,-999.0,69,-99.99,,,0.09,weatherlink.com 1.10,2013-03-15 00:20:00,
2013-03-14 19:35:00,33.4,25.0,30.04,WSW,244,0.0,-999.0,71,-99.99,,,0.09,weatherlink.com 1.10,2013-03-15 00:35:00,
2013-03-14 19:50:00,32.2,24.0,30.04,WSW,244,0.0,-999.0,73,-99.99,,,0.09,weatherlink.com 1.10,2013-03-15 00:50:00,
2013-03-14 20:05:00,31.2,24.0,30.04,WSW,244,0.0,-999.0,75,-99.99,,,0.09,weatherlink.com 1.10,2013-03-15 01:05:00,
2013-03-14 20:21:00,30.4,24.0,30.03,WSW,244,0.0,-999.0,77,-99.99,,,0.09,weatherlink.com 1.10,2013-03-15 01:21:00,
2013-03-14 20:36:00,29.7,24.0,30.02,WSW,244,0.0,-999.0,79,-99.99,,,0.09,weatherlink.com 1.10,2013-03-15 01:36:00,
2013-03-14 20:51:00,29.4,24.0,30.02,WSW,244,0.0,-999.0,81,-99.99,,,0.09,weatherlink.com 1.10,2013-03-15 01:51:00,
2013-03-14 21:05:00,29.1,24.0,30.02,WSW,244,0.0,-999.0,82,-99.99,,,0.09,weatherlink.com 1.10,2013-03-15 02:05:00,
2013-03-14 21:20:00,29.1,25.0,30.01,WSW,244,0.0,-999.0,83,-99.99,,,0.09,weatherlink.com 1.10,2013-03-15 02:20:00,
2013-03-14 21:35:00,29.0,24.0,30.00,WSW,244,0.0,-999.0,82,-99.99,,,0.09,weatherlink.com 1.10,2013-03-15 02:35:00,
2013-03-14 21:50:00,28.8,24.0,30.00,WSW,244,0.0,-999.0,83,-99.99,,,0.09,weatherlink.com 1.10,2013-03-15 02:50:00,
2013-03-14 22:06:00,29.0,25.0,30.00,WSW,238,0.0,-999.0,83,-99.99,,,0.09,weatherlink.com 1.10,2013-03-15 03:06:00,
2013-03-14 22:21:00,29.0,25.0,29.99,SW,215,0.0,-999.0,83,-99.99,,,0.09,weatherlink.com 1.10,2013-03-15 03:21:00,
2013-03-14 22:36:00,29.1,24.0,29.98,SW,234,0.0,-999.0,82,-99.99,,,0.09,weatherlink.com 1.10,2013-03-15 03:36:00,
2013-03-14 22:51:00,29.1,24.0,29.98,SW,234,0.0,-999.0,82,-99.99,,,0.09,weatherlink.com 1.10,2013-03-15 03:51:00,
2013-03-14 23:06:00,28.7,24.0,29.98,SW,234,0.0,-999.0,81,-99.99,,,0.09,weatherlink.com 1.10,2013-03-15 04:06:00,
2013-03-14 23:21:00,28.1,23.0,29.98,SW,234,0.0,-999.0,81,-99.99,,,0.09,weatherlink.com 1.10,2013-03-15 04:21:00,
2013-03-14 23:36:00,27.3,22.0,29.98,SW,234,0.0,-999.0,81,-99.99,,,0.09,weatherlink.com 1.10,2013-03-15 04:36:00,
2013-03-14 23:51:00,26.7,22.0,29.98,SW,234,0.0,-999.0,81,-99.99,,,0.09,weatherlink.com 1.10,2013-03-15 04:51:00,